Hourly Data Report for October 29, 2013

All times are specified in Local Standard Time (LST). Add 1 hour to adjust for Daylight Saving Time where and when it is observed.

POND INLET A
NUNAVUT

72°41'22.000" N
77°58'08.000" W
61.60 m
2403206
71095
YIO

Download Data

Hourly Data (October 2013)
Hourly Data Report for October 29, 2013
Temp Definition
°C
Dew Point Temp Definition
°C
Rel Hum Definition
%
Wind Dir Definition
10's deg

Wind Spd Definition
km/h
Visibility Definition
km
Stn Press Definition
kPa
Hmdx Definition


Wind Chill Definition


Weather Definition


TIME
00:00 Legend Double Dagger -15.6 -18.4 80 14 13 16.1 100.03   -23 LegendNANA
01:00 Legend Double Dagger -15.3 -18.8 75 15 18 16.1 100.04   -24 LegendNANA
02:00 Legend Double Dagger -16.5 -19.6 78 14 17 16.1 100.05   -25 LegendNANA
03:00 Legend Double Dagger -17.1 -20.2 77 15 18 16.1 100.07   -26 LegendNANA
04:00 Legend Double Dagger -15.7 -19.9 70 14 17 16.1 100.07   -24 LegendNANA
05:00 Legend Double Dagger -16.1 -19.3 77 15 21 16.1 100.09   -26 LegendNANA
06:00 Legend Double Dagger -15.2 -18.9 74 15 17 16.1 100.10   -24 LegendNANA
07:00 Legend Double Dagger -16.4 -19.9 75 14 17 16.1 100.10   -25 LegendNANA
08:00 Legend Double Dagger -16.2 -19.6 75 14 13 16.1 100.10   -24 LegendNANA
09:00 Legend Double Dagger -15.8 -18.5 80 16 5 16.1 100.12   -20 LegendNANA
10:00 Legend Double Dagger -15.6 -18.8 77 14 4 16.1 100.11   -19 LegendNANA
11:00 Legend Double Dagger -16.1 -18.5 82 14 4 16.1 100.11   -19 LegendNANA
12:00 Legend Double Dagger -15.3 -18.5 77 15 17 16.1 100.12   -24 LegendNANA
13:00 Legend Double Dagger -15.7 -18.9 77 15 15 16.1 100.14   -24 LegendNANA
14:00 Legend Double Dagger -17.0 -20.4 75 14 15 16.1 100.14   -25 LegendNANA
15:00 Legend Double Dagger -14.5 -18.2 74 15 21 16.1 100.15   -24 LegendNANA
16:00 Legend Double Dagger -15.8 -19.1 76 15 17 16.1 100.18   -24 LegendNANA
17:00 Legend Double Dagger -16.2 -19.7 75 17 11 16.1 100.22   -23 LegendNANA
18:00 Legend Double Dagger -16.1 -19.1 78 16 13 16.1 100.25   -24 LegendNANA
19:00 Legend Double Dagger -17.9 -20.4 81 13 9 16.1 100.25   -24 LegendNANA
20:00 Legend Double Dagger -17.2 -19.3 84 10 8 16.1 100.27   -23 LegendNANA
21:00 Legend Double Dagger -15.3 -18.6 77 15 17 16.1 100.28   -24 LegendNANA
22:00 Legend Double Dagger -16.7 -19.3 81 14 13 16.1 100.25   -24 LegendNANA
23:00 Legend Double Dagger -16.1 -18.4 83 15 15 16.1 100.25   -24 LegendNANA

Notes on Data Quality.

Legend

  • E = Estimated
  • M = Missing
  • NA = Not Available
  • ‡ = Partner data that is not subject to review by the National Climate Archives
Date modified: